Location: Molveno
(46.1500°N, 10.9667°E)
Time: 01:29:56
(UTC+00:00)

Gbstr 26 Del rocket - Pass Details

Date: 05 July 2020
Orbit: 492 x 1264 km, 51.8° (Epoch: 11 August)

Event Time Altitude Azimuth Distance (km) Brightness Sun altitude
Exits shadow 22:49:27 26° 94° (E) 1,066 4.1 -20.8°
Drops below altitude 10° 22:51:40 10° 72° (ENE) 1,835 5.6 -20.9°
Sets 22:54:09 0° 65° (ENE) 2,826 6.7 -20.9°
